GFSNW_700_temp_000.txt.gz
Temp
2 3 4 3 3 3 2 3 2 4 4 4 5 3 4 3 3 4 4 4 5 4 4 4 4 4 4 5 5 5 5 5 4 4 4 4 4 3 4 5 4 4 3 6
1 2 3 3 3 3 3 3 3 2 3 4 5 4 4 4 4 4 4 4 5 4 4 4 4 3 4 4 4 4 4 4 5 4 4 5 4 4 3 4 3 4 5 6
0 1 2 3 3 3 3 2 2 2 1 2 3 3 3 3 3 4 4 4 4 4 4 4 3 3 3 3 3 3 3 3 4 6 5 4 4 4 4 3 4 4 4 5
2 0 2 2 3 3 3 3 2 2 2 1 1 2 2 2 2 3 3 3 3 3 3 3 3 2 2 2 2 2 2 2 3 4 4 3 3 3 3 2 2 3 4 4
2 1 1 2 3 3 3 3 3 2 2 2 2 2 2 2 2 3 3 3 3 3 2 2 2 2 2 2 2 2 2 1 2 2 3 3 2 3 3 4 3 2 2 2
2 2 1 1 2 2 3 3 3 3 2 2 2 2 2 2 2 2 2 3 2 2 2 2 2 2 2 2 2 2 2 1 1 2 1 1 1 4 5 5 6 5 3 4
3 2 2 2 1 2 2 2 3 3 3 3 3 2 2 2 2 2 2 2 2 2 2 2 2 2 2 2 2 2 1 1 -1 -0 -1 2 3 3 4 4 4 4 4 3
3 2 2 2 1 1 2 2 1 1 1 1 2 2 2 2 2 2 2 2 2 2 2 2 2 2 2 2 2 3 1 -1 -1 -1 1 1 3 4 4 4 3 3 3 3
2 2 2 3 2 1 1 1 2 1 1 2 1 1 1 1 1 1 1 1 1 1 1 1 0 1 2 1 2 3 3 2 -2 -2 -2 1 3 4 2 1 1 2 2 2
2 2 2 2 2 2 2 1 0 0 1 1 2 1 1 1 1 1 0 0 0 0 0 0 -1 -0 -0 -0 0 1 1 1 -0 -1 -2 -1 2 2 0 -0 2 1 0 0
2 2 2 2 2 3 2 2 1 1 0 0 1 1 1 1 1 0 0 0 0 0 0 -0 -1 -1 -1 -1 -0 0 0 1 -1 -3 -3 -2 2 1 0 0 -0 -1 -2 -2
2 2 2 2 2 2 2 2 1 1 1 1 1 0 0 1 1 0 0 -0 1 -0 -0 -1 -1 -1 -2 -1 -2 -1 -2 0 1 -0 1 1 1 0 -0 -1 -1 -1 -2 -2
2 1 2 2 2 2 2 2 1 -0 0 1 1 1 1 0 -0 -0 -0 -0 -1 -1 -1 -1 -2 -2 -2 -2 -2 -2 -1 -1 -1 -1 0 1 -0 -1 -1 -2 -2 -2 -3 -3
1 1 1 1 1 1 1 0 -0 -1 -1 -1 -0 0 0 -0 -0 -0 -0 -0 -0 -1 -1 -2 -2 -2 -1 -1 -1 -2 -2 -2 0 0 0 -0 -1 -2 -2 -3 -3 -4 -4 -4
1 1 1 0 -0 -0 0 0 0 -2 -2 -1 -1 1 -0 0 0 0 -0 -1 -1 -0 -0 -2 -2 -2 -2 -2 -2 -2 -2 0 -1 -0 -2 -3 -3 -3 -3 -4 -4 -4 -5 -5
0 0 0 0 -0 -1 -1 -1 -1 -1 -2 -2 -2 1 0 -0 0 0 0 -1 -1 -1 -0 -1 -2 -3 -3 -3 -3 -3 -0 -1 -2 -2 -3 -4 -4 -4 -5 -4 -5 -5 -6 -6
-1 -2 -1 -1 -1 -1 -1 -2 -1 -2 -3 -3 -3 -2 -1 -1 -1 -1 -2 -2 -3 -3 -3 -3 -4 -4 -4 -4 -5 1 -1 -3 -4 -5 -5 -5 -5 -5 -5 -5 -5 -5 -6 -6
-3 -2 -2 -2 -2 -2 -1 -1 -1 -2 -4 -4 -4 -3 -3 -2 -1 -2 -3 -3 -3 -4 -4 -4 -3 -5 -5 -5 1 -1 -2 -3 -4 -5 -5 -5 -5 -5 -5 -5 -6 -6 -7 -7
-3 -3 -3 -2 -2 -2 -1 -2 -2 -2 -4 -4 -5 -4 -3 -3 -4 -4 -4 -5 -5 -5 -3 -3 -4 -5 -6 -1 -3 -3 -4 -4 -5 -7 -7 -6 -6 -6 -6 -6 -7 -7 -8 -8
-3 -3 -3 -3 -2 -2 -2 -3 -3 -4 -5 -5 -4 -3 -4 -4 -4 -5 -6 -6 -6 -6 -6 -6 -6 -5 -4 -3 -4 -4 -4 -4 -5 -7 -6 -6 -6 -7 -7 -7 -8 -8 -9 -9
-4 -3 -3 -3 -3 -3 -3 -4 -4 -5 -4 -3 -1 -2 -4 -4 -5 -5 -6 -6 -6 -6 -5 -6 -5 -4 -3 -4 -4 -5 -5 -5 -5 -5 -7 -7 -7 -7 -8 -8 -9 -9 -10 -10
-4 -4 -4 -4 -4 -4 -4 -7 -5 -3 -3 -2 -1 -1 -2 -2 -4 -5 -6 -6 -6 -4 -6 -7 -4 -2 -3 -4 -4 -5 -5 -6 -6 -6 -7 -8 -8 -9 -9 -10 -10 -10 -10 -10
-5 -5 -4 -4 -4 -5 -6 -5 -3 -2 -2 -2 -2 -3 -3 -3 -4 -5 -5 -6 -6 -6 -7 -5 -3 -4 -4 -5 -5 -5 -4 -5 -7 -7 -8 -9 -9 -10 -10 -10 -10 -10 -10 -11
-5 -5 -5 -4 -4 -4 -2 -2 -3 -3 -3 -3 -4 -4 -5 -5 -5 -6 -6 -7 -8 -8 -6 -4 -3 -4 -4 -5 -6 -6 -6 -6 -7 -8 -8 -9 -10 -10 -10 -10 -10 -11 -11 -11
-5 -5 -5 -4 -4 -4 -3 -3 -3 -4 -4 -4 -5 -6 -6 -6 -7 -7 -8 -8 -8 -7 -4 -4 -5 -5 -6 -6 -7 -7 -7 -7 -8 -9 -10 -10 -10 -11 -11 -11 -11 -12 -12 -12
-6 -6 -5 -5 -5 -4 -4 -5 -5 -6 -6 -7 -7 -7 -7 -7 -7 -8 -8 -8 -5 -4 -5 -6 -6 -6 -7 -8 -8 -8 -8 -9 -9 -10 -10 -11 -11 -11 -11 -12 -12 -12 -13 -13
-7 -7 -6 -5 -5 -5 -5 -6 -7 -8 -8 -8 -8 -8 -8 -8 -8 -8 -7 -5 -4 -5 -6 -7 -7 -8 -9 -9 -9 -9 -10 -10 -10 -11 -11 -11 -12 -12 -12 -12 -13 -13 -14 -14

GFSNW_700_temp_003.txt.gz
Temp
3 3 3 3 3 4 4 3 3 3 2 2 2 1 1 2 3 3 4 4 4 3 4 4 4 3 4 5 5 4 5 5 5 5 5 5 5 6 6 7 7 6 6 7
3 3 3 3 3 4 4 4 3 4 4 2 3 3 3 3 3 4 4 4 5 4 4 4 4 4 4 4 4 4 4 4 6 4 4 4 4 4 4 5 5 5 6 8
3 3 3 3 3 3 4 4 2 3 4 3 1 2 3 3 3 4 4 4 4 4 4 5 4 4 4 4 4 3 3 3 4 6 4 4 3 4 4 3 4 5 6 6
3 3 3 3 3 3 3 3 2 3 2 2 3 3 3 3 3 3 4 3 4 4 3 3 3 3 3 3 3 3 3 3 3 3 3 3 3 3 3 3 3 4 5 5
3 3 2 3 3 3 3 4 3 2 2 3 3 3 3 3 3 3 3 3 4 4 4 3 3 3 3 3 3 3 3 3 3 3 3 3 2 3 4 2 3 3 3 3
3 2 2 2 3 3 3 4 4 3 2 3 2 2 2 3 3 3 3 3 3 3 3 4 3 3 3 3 2 2 2 1 2 3 3 1 2 5 5 6 5 4 4 4
2 2 2 2 2 2 3 3 4 3 3 3 3 3 3 3 2 2 2 3 2 2 3 3 3 3 3 3 3 2 1 0 -0 1 1 2 4 5 6 5 4 4 3 3
2 2 2 2 2 2 2 2 3 3 2 2 2 2 2 2 2 2 2 2 2 2 2 2 2 2 2 2 2 2 2 1 0 0 2 3 3 4 3 3 2 3 3 2
2 2 2 2 2 2 2 2 2 2 2 2 2 1 1 1 1 1 1 1 1 1 2 1 2 2 2 1 2 2 2 2 -0 0 -0 2 4 3 3 2 1 3 3 3
2 2 2 2 2 2 2 2 2 2 0 1 1 1 1 1 1 1 1 1 1 1 1 1 2 1 2 1 1 1 2 1 -0 -0 -0 1 2 3 2 1 3 2 2 1
2 2 2 2 2 2 2 2 2 2 2 1 1 1 1 1 1 1 1 1 1 1 1 0 1 -0 -0 0 0 1 1 0 -0 -1 -1 -1 3 2 1 1 1 0 -0 -0
1 1 2 2 2 1 1 1 0 0 1 1 1 1 1 1 1 1 0 0 -0 -0 -0 -1 -1 -1 -1 -1 -1 -0 -1 -0 1 0 2 2 1 1 0 -0 -1 -1 -2 -2
1 1 1 1 2 2 1 0 -0 -1 -1 -0 1 1 1 0 -0 -0 -0 -0 -0 -0 -1 -1 -1 -1 -2 -2 -2 -2 -2 -1 -1 -0 0 0 -0 -0 -1 -1 -2 -2 -2 -3
1 1 1 0 1 1 1 1 -1 -1 -1 -1 -0 0 -0 -0 -0 -1 -1 -1 -1 -1 -1 -1 -1 -2 -2 -2 -2 -2 -2 -1 0 -2 -2 -1 -1 -1 -2 -3 -3 -3 -3 -4
0 0 0 0 -0 -0 -0 -0 -1 -1 -1 -2 -1 -1 -0 0 -0 -1 -1 -1 -1 -1 -1 -2 -2 -2 -2 -3 -3 0 1 1 -2 -1 -2 -3 -3 -3 -3 -4 -4 -4 -4 -5
-0 -0 -0 -0 -1 -1 -1 -1 -1 -0 -1 -2 -2 1 0 1 0 -1 -1 -1 -2 -2 -2 -2 -2 -1 -2 -3 -3 3 -0 -2 -2 -1 -3 -3 -4 -4 -5 -5 -5 -5 -5 -5
-1 -1 -1 -2 -2 -2 -2 -1 -0 -0 -2 -2 -2 0 1 2 1 2 1 0 -1 -1 -2 -2 -2 -2 -3 -4 -3 0 -2 -3 -4 -4 -4 -5 -5 -5 -5 -5 -5 -5 -6 -6
-2 -2 -3 -3 -3 -2 -2 -2 -1 -1 -1 -1 -1 -1 -0 -0 -1 -0 -1 -2 -3 -4 -4 -4 -4 -4 -5 -5 1 -2 -3 -4 -4 -5 -5 -6 -7 -7 -7 -7 -6 -6 -6 -6
-3 -3 -4 -3 -3 -3 -2 -2 -3 -3 -3 -4 -0 1 -1 -1 -1 -3 -3 -4 -4 -4 -5 -3 -5 -6 -5 1 -2 -2 -3 -4 -4 -3 -4 -4 -5 -6 -7 -7 -7 -7 -7 -8
-3 -4 -4 -3 -3 -3 -3 -3 -3 -4 -4 -5 -1 -0 -1 -2 -3 -4 -4 -5 -4 -4 -4 -3 -4 -2 -0 -2 -2 -2 -3 -3 -4 -4 -4 -5 -5 -5 -6 -7 -7 -8 -8 -8
-4 -3 -3 -3 -3 -3 -4 -4 -4 -4 -4 -3 -1 -2 -4 -3 -4 -5 -6 -6 -6 -6 -6 -6 -6 -5 -2 -3 -3 -4 -4 -5 -5 -5 -6 -6 -6 -7 -7 -7 -8 -8 -8 -9
-4 -4 -4 -4 -4 -4 -4 -4 -4 -3 -3 -2 -1 -2 -2 -3 -4 -6 -6 -6 -6 -6 -7 -7 -5 -3 -3 -4 -4 -4 -4 -5 -5 -5 -5 -6 -6 -8 -8 -8 -9 -9 -9 -10
-5 -5 -5 -5 -4 -5 -5 -4 -3 -3 -2 -2 -2 -2 -3 -3 -4 -6 -6 -6 -7 -6 -7 -6 -4 -3 -4 -4 -4 -4 -5 -6 -6 -6 -6 -6 -8 -8 -9 -9 -10 -10 -11 -11
-6 -6 -5 -5 -4 -4 -3 -3 -3 -3 -3 -3 -3 -4 -5 -5 -5 -6 -5 -7 -7 -7 -6 -5 -3 -3 -4 -4 -4 -5 -6 -7 -7 -7 -7 -8 -8 -9 -10 -10 -10 -11 -11 -11
-7 -6 -5 -5 -4 -4 -4 -4 -4 -4 -4 -4 -5 -5 -6 -6 -7 -6 -6 -7 -7 -8 -4 -3 -4 -4 -4 -5 -5 -6 -6 -7 -8 -8 -8 -9 -9 -10 -10 -11 -11 -11 -11 -12
-9 -7 -6 -5 -5 -4 -5 -5 -5 -5 -5 -6 -6 -7 -7 -7 -7 -7 -7 -8 -7 -5 -4 -4 -5 -5 -6 -6 -7 -7 -8 -8 -8 -9 -10 -10 -10 -11 -11 -11 -12 -12 -12 -13
-10 -8 -7 -6 -6 -5 -6 -6 -6 -6 -7 -7 -8 -8 -8 -8 -8 -9 -7 -6 -5 -5 -5 -6 -6 -7 -7 -7 -8 -9 -9 -9 -9 -10 -10 -11 -11 -12 -12 -12 -13 -13 -13 -13

GFSNW_700_temp_006.txt.gz
Temp
2 3 4 4 4 4 4 3 2 1 2 2 3 2 2 2 2 2 2 3 3 3 3 3 3 4 4 5 5 5 6 5 4 4 5 5 5 6 6 6 7 6 6 7
2 3 4 4 4 4 4 4 3 2 2 3 2 2 2 3 3 3 3 3 3 3 3 3 3 3 4 4 4 5 5 5 4 5 5 5 5 6 6 6 5 5 5 7
2 2 3 3 3 4 4 4 3 3 3 1 1 2 2 2 3 3 4 3 3 4 4 4 4 3 3 3 4 4 4 5 4 5 4 4 4 5 5 5 4 5 6 6
2 2 3 3 3 3 4 4 3 3 2 3 3 3 2 3 3 3 3 3 3 4 3 4 4 4 4 4 4 5 5 4 4 4 4 4 4 5 5 5 6 4 7 5
2 1 2 3 3 3 3 4 3 3 3 3 3 3 3 3 4 4 4 4 4 4 4 4 4 4 4 4 4 4 4 3 3 4 4 3 3 5 4 4 4 3 3 4
3 2 2 2 3 2 3 4 4 4 3 3 3 4 4 4 4 4 4 4 4 4 5 4 4 4 4 4 4 3 3 3 2 2 3 2 3 7 6 6 5 5 4 6
2 2 2 2 2 2 2 3 4 4 4 4 5 5 5 5 4 4 4 4 4 3 4 3 3 3 3 3 3 3 1 1 1 1 1 -0 5 5 6 5 5 5 4 4
2 2 2 2 1 2 2 2 3 3 4 4 4 4 4 3 3 3 3 3 3 3 3 2 2 2 2 2 2 2 2 1 1 1 1 3 5 5 5 4 4 4 3 3
2 2 2 2 2 2 2 2 2 2 3 3 3 3 2 2 2 1 2 1 2 2 3 2 2 2 2 2 2 2 2 2 1 0 0 -1 4 3 3 3 2 3 2 2
2 2 2 2 2 2 1 1 2 2 2 2 2 2 2 2 2 2 2 1 2 2 2 2 1 2 2 1 1 2 2 1 1 1 0 1 3 2 2 1 2 2 1 1
2 2 2 2 1 1 2 2 1 1 1 1 1 0 0 0 1 2 1 1 1 1 1 1 1 1 1 1 1 1 1 1 0 -1 -0 0 2 2 1 1 0 -0 -1 -1
1 1 1 1 1 1 1 1 1 1 1 1 1 0 0 0 1 1 1 1 2 1 1 1 1 1 1 -0 -1 -1 -0 1 1 0 2 2 1 0 0 -0 -1 -1 -1 -2
1 1 1 1 0 -0 -1 -1 -0 1 1 1 1 1 0 1 1 1 1 0 1 0 0 -0 -1 -1 -2 -2 -2 -2 -1 -1 -1 -0 1 0 0 -1 -1 -1 -2 -2 -3 -2
1 1 1 1 1 0 -1 -1 -2 -2 -2 -1 -1 -0 -1 0 -0 0 0 0 -0 -1 -1 -1 -2 -2 -2 -2 -2 -1 -2 -1 -0 -1 -1 -2 -2 -3 -2 -2 -2 -2 -2 -2
0 0 0 1 0 -0 -1 -1 -2 -2 -1 -3 -2 -2 -1 -1 -1 -1 -1 -1 -2 -2 -2 -2 -2 -2 -2 -2 -3 2 1 0 -2 -2 -2 -2 -2 -2 -3 -2 -2 -4 -4 -4
-0 -0 -0 -0 -0 -1 -1 -1 -2 -3 -2 -2 -3 -0 -1 -2 -2 -2 -1 -1 -1 -1 -1 -2 -2 -3 -3 -3 -3 4 0 -1 -1 -1 -0 -0 -1 -2 -3 -3 -4 -3 -4 -4
-1 -1 -1 -1 -1 -2 -2 -2 -2 -2 -3 -4 -3 -1 0 -0 -0 -1 -1 -1 -2 -3 -3 -4 -3 -3 -4 -3 -1 2 -1 -1 -2 -2 -2 -2 -3 -3 -4 -4 -5 -5 -5 -6
-1 -1 -2 -2 -3 -3 -2 -3 -3 -4 -4 -4 -3 -2 -1 -1 -0 -1 -1 -1 -3 -3 -3 -2 -3 -4 -4 -1 2 -0 -1 -2 -2 -2 -2 -3 -4 -4 -4 -4 -5 -5 -6 -6
-3 -3 -3 -4 -3 -3 -3 -3 -4 -4 -4 -4 -3 -2 -2 -2 -2 -2 -2 -2 -3 -3 -3 -2 -4 -4 -3 2 -0 -1 -2 -2 -3 -3 -3 -4 -4 -4 -5 -5 -5 -5 -6 -6
-4 -4 -4 -4 -4 -3 -3 -3 -3 -4 -5 -5 -2 -2 -3 -3 -3 -3 -3 -4 -3 -4 -5 -5 -6 -4 0 -1 -1 -2 -2 -3 -3 -3 -4 -4 -4 -5 -5 -5 -5 -6 -7 -8
-5 -5 -5 -4 -4 -3 -3 -3 -3 -3 -3 -2 -1 -1 -2 -4 -4 -5 -5 -5 -5 -5 -6 -5 -6 -3 -1 -2 -2 -3 -3 -3 -4 -4 -5 -5 -5 -5 -5 -6 -6 -8 -8 -9
-5 -5 -5 -5 -5 -4 -3 -4 -3 -2 -2 -2 -1 -2 -2 -3 -4 -5 -5 -5 -5 -4 -6 -6 -3 -2 -2 -3 -3 -4 -4 -4 -4 -5 -5 -6 -6 -6 -6 -7 -8 -9 -9 -10
-7 -6 -6 -5 -5 -5 -5 -4 -3 -2 -2 -2 -3 -3 -3 -3 -3 -5 -5 -5 -6 -6 -6 -5 -3 -3 -3 -4 -4 -4 -5 -5 -5 -6 -6 -7 -7 -7 -8 -8 -9 -9 -10 -10
-7 -7 -7 -5 -4 -4 -4 -3 -3 -3 -3 -2 -3 -4 -4 -4 -4 -5 -5 -7 -7 -7 -8 -4 -3 -4 -4 -4 -5 -5 -6 -6 -6 -7 -7 -7 -8 -8 -9 -9 -10 -10 -11 -11
-9 -8 -6 -5 -4 -4 -4 -4 -4 -4 -4 -4 -5 -5 -5 -5 -6 -6 -6 -7 -7 -7 -4 -4 -5 -5 -5 -6 -6 -6 -7 -7 -7 -8 -8 -8 -9 -9 -10 -10 -11 -11 -12 -12
-9 -8 -6 -6 -5 -5 -4 -5 -5 -5 -6 -6 -6 -6 -6 -7 -7 -7 -6 -7 -7 -4 -4 -5 -5 -6 -6 -6 -7 -7 -7 -8 -8 -8 -9 -9 -9 -10 -10 -11 -12 -12 -12 -13
-10 -9 -8 -6 -6 -5 -6 -6 -7 -6 -6 -7 -7 -7 -7 -7 -8 -9 -7 -6 -5 -5 -6 -6 -7 -7 -7 -7 -8 -8 -8 -8 -9 -9 -9 -10 -10 -11 -11 -12 -12 -13 -13 -13

GFSNW_700_temp_009.txt.gz
Temp
2 3 3 3 3 3 3 3 2 1 2 2 3 2 1 1 1 1 2 3 3 3 3 3 4 4 5 5 5 5 6 5 4 5 5 5 5 5 6 6 6 6 5 7
2 3 3 3 3 3 2 3 2 2 2 2 3 2 2 2 2 2 2 1 3 3 3 4 4 4 5 5 5 5 5 5 4 4 4 4 5 5 5 5 5 5 4 6
2 2 3 3 3 3 3 3 2 1 2 1 3 2 2 2 3 3 3 2 2 4 4 4 4 4 4 4 5 5 5 5 5 4 4 5 4 5 5 5 5 6 6 7
2 2 3 3 3 3 3 3 3 2 1 1 2 2 2 3 3 2 2 2 3 3 3 4 4 3 3 3 4 5 5 5 4 4 5 5 5 5 5 6 6 5 7 6
2 2 2 3 3 2 3 3 3 3 3 3 3 3 3 3 3 3 3 3 3 4 4 4 3 4 4 4 4 5 5 4 5 5 5 5 6 6 6 6 5 5 5 6
2 2 2 2 3 3 3 3 4 4 3 4 4 4 4 4 4 3 4 4 3 4 4 4 4 4 5 5 4 5 4 4 4 3 3 4 5 7 6 6 5 5 4 6
2 2 2 2 2 3 3 3 4 4 4 4 5 5 5 4 4 4 4 3 4 4 3 3 3 3 4 4 4 4 4 4 3 2 2 -0 5 5 5 5 5 4 4 4
2 2 2 2 2 2 3 2 3 4 5 5 5 5 5 4 4 4 4 3 4 4 3 3 4 3 3 3 3 2 3 2 2 2 1 4 5 5 4 4 4 3 4 3
2 2 2 2 1 2 2 2 3 3 4 4 5 5 4 4 3 3 3 3 3 3 3 3 3 2 2 2 2 2 3 2 1 -0 0 -2 3 3 3 3 3 3 3 2
2 2 2 2 1 1 1 1 2 2 3 3 3 3 4 3 3 3 2 3 2 2 3 3 2 2 2 2 2 2 2 1 1 0 0 2 2 2 2 2 1 1 1 0
2 2 2 2 1 1 1 1 1 1 2 2 2 3 3 3 2 2 2 1 1 2 2 2 2 2 1 1 1 1 1 1 1 -0 -1 -0 1 1 0 0 -0 -1 -0 -1
1 1 2 2 2 1 1 1 0 1 1 1 1 1 1 1 1 1 1 2 2 2 2 2 1 1 1 1 1 0 -0 0 0 1 1 1 0 0 -0 -1 -1 -1 -1 -2
1 1 1 1 2 1 1 1 0 -0 -0 -0 -0 -0 -0 -1 -0 0 1 1 1 1 1 1 1 0 -0 -0 0 -0 -0 -0 -1 -1 0 0 0 -0 -1 -1 -1 -1 -1 -2
0 -0 0 0 0 1 1 0 -1 -1 -1 -1 -1 -1 -1 -0 -0 0 0 0 0 0 0 -0 -0 -1 -2 -1 -1 -2 -1 -2 -1 -1 -1 -1 -1 -1 -1 -0 -1 -2 -3 -3
0 -0 -0 -0 -0 -0 -0 -0 0 0 -1 -2 -2 -2 -1 -1 -1 -0 0 0 -0 -0 -1 -1 -2 -2 -2 -2 -2 -0 1 0 -1 0 -1 -0 0 -0 -1 -3 -3 -2 -2 -2
-0 -1 -1 -1 -0 -1 -1 -0 -1 -1 0 -1 -3 -2 -2 -2 -1 -1 -1 -1 -2 -2 -2 -2 -2 -3 -3 -2 -1 2 1 -0 -1 -0 -0 -1 -3 -3 -2 -2 -2 -2 -3 -4
-1 -1 -1 -1 -1 -2 -2 -1 -1 -1 -3 -4 -4 -2 -1 -2 -3 -2 -2 -2 -2 -2 -2 -2 -3 -3 -4 -3 0 1 -1 -1 -2 -2 -2 -2 -2 -2 -2 -3 -3 -3 -4 -4
-2 -2 -2 -2 -2 -2 -3 -3 -3 -3 -3 -4 -4 -3 -2 -2 -2 -3 -3 -3 -3 -3 -4 -4 -4 -4 -4 -1 1 0 -1 -2 -3 -2 -2 -2 -3 -3 -3 -4 -4 -4 -5 -5
-2 -2 -2 -3 -3 -3 -3 -3 -5 -6 -4 -5 -4 -3 -2 -2 -3 -3 -3 -4 -5 -4 -4 -4 -4 -5 -1 2 1 -1 -2 -2 -2 -2 -3 -3 -4 -4 -4 -4 -4 -5 -5 -6
-3 -3 -3 -4 -4 -4 -4 -5 -5 -5 -5 -5 -3 -3 -2 -2 -3 -4 -4 -4 -4 -5 -5 -5 -5 -3 1 -0 -1 -1 -2 -3 -3 -3 -4 -4 -4 -5 -5 -5 -5 -5 -5 -6
-5 -4 -4 -4 -5 -5 -5 -4 -5 -5 -5 -3 -2 -3 -3 -4 -3 -4 -4 -4 -4 -5 -5 -5 -7 -2 -1 -2 -2 -3 -3 -4 -4 -4 -4 -5 -5 -5 -5 -5 -6 -6 -6 -7
-5 -5 -5 -5 -5 -5 -4 -5 -4 -3 -3 -2 -2 -3 -5 -6 -5 -6 -6 -5 -5 -6 -7 -7 -5 -2 -2 -3 -4 -4 -4 -5 -5 -5 -5 -6 -6 -6 -6 -6 -7 -7 -7 -8
-7 -7 -6 -6 -5 -5 -5 -4 -4 -2 -1 -1 -2 -3 -5 -6 -6 -6 -6 -6 -7 -7 -8 -6 -2 -3 -4 -4 -4 -5 -5 -5 -6 -6 -6 -6 -6 -7 -7 -7 -7 -8 -9 -10
-8 -7 -6 -5 -5 -4 -4 -3 -2 -2 -2 -3 -4 -4 -4 -5 -5 -5 -5 -6 -6 -7 -7 -3 -3 -4 -5 -5 -6 -6 -6 -6 -6 -6 -7 -7 -7 -7 -8 -8 -9 -9 -10 -11
-7 -7 -6 -6 -5 -4 -4 -4 -4 -4 -4 -4 -5 -5 -5 -5 -5 -5 -5 -5 -6 -6 -3 -4 -4 -5 -5 -6 -6 -6 -7 -7 -7 -7 -7 -8 -8 -8 -9 -9 -10 -10 -11 -12
-7 -7 -6 -6 -5 -4 -4 -5 -5 -5 -5 -6 -6 -6 -6 -6 -6 -6 -5 -7 -5 -4 -4 -5 -5 -6 -6 -7 -7 -8 -8 -8 -8 -8 -8 -8 -9 -9 -9 -10 -11 -11 -12 -12
-9 -9 -7 -6 -6 -6 -6 -6 -6 -6 -6 -6 -6 -6 -6 -7 -7 -7 -6 -5 -5 -6 -6 -6 -7 -7 -8 -8 -8 -9 -8 -9 -8 -8 -9 -9 -10 -10 -10 -11 -11 -11 -12 -13

GFSNW_700_temp_015.txt.gz
Temp
2 2 2 2 3 2 2 2 1 1 1 1 1 0 -0 -0 -0 0 0 0 -0 0 1 -1 0 0 1 2 2 3 4 4 3 3 4 4 4 5 5 5 4 4 4 6
2 3 2 2 3 3 2 2 1 1 1 1 1 0 -0 0 0 0 0 0 0 0 1 1 1 2 1 2 3 4 4 4 3 2 3 4 4 5 5 5 5 5 4 6
2 2 2 2 2 2 2 1 1 1 1 1 1 1 -0 0 0 1 0 0 1 1 1 2 1 2 2 2 2 2 4 4 4 3 4 4 4 5 5 5 5 5 5 6
2 2 2 2 2 2 2 1 1 1 1 2 1 1 1 1 1 1 1 0 1 2 1 3 3 3 3 3 3 2 4 5 5 5 5 5 6 6 5 5 5 5 6 6
2 2 2 1 2 2 2 2 1 1 1 1 2 2 0 2 1 1 0 1 1 2 3 3 3 4 3 3 3 4 4 5 5 4 5 5 5 5 4 5 5 4 5 5
1 2 2 1 2 2 2 2 2 1 1 2 2 2 2 1 1 1 1 1 1 1 2 3 4 4 4 4 4 4 4 5 4 4 4 4 4 5 5 4 4 5 4 4
2 2 2 1 2 2 2 2 2 1 2 2 2 3 3 2 2 3 1 2 2 2 1 1 2 3 3 4 4 4 5 4 4 4 3 1 4 5 4 4 4 3 3 3
2 2 1 1 1 2 2 2 2 2 2 3 3 3 3 3 3 3 3 2 2 3 2 2 2 1 2 3 4 4 4 4 4 4 3 4 3 4 4 3 2 3 2 2
2 2 2 1 1 1 2 2 2 2 2 3 3 4 3 3 3 2 2 2 2 2 2 3 3 3 3 3 3 3 3 3 3 2 2 0 3 2 2 2 2 2 2 1
2 1 2 1 1 1 2 2 1 2 2 3 3 3 3 3 3 3 3 2 2 2 2 3 3 3 3 3 3 3 2 2 2 2 2 3 2 2 2 2 2 2 1 1
1 1 1 1 1 1 1 1 1 1 2 3 3 3 3 3 3 3 3 2 2 2 2 2 3 3 3 2 2 2 2 2 1 1 1 1 2 2 2 2 2 1 1 1
1 1 1 1 1 1 1 1 1 1 1 2 2 3 2 2 2 3 3 3 3 2 2 2 3 3 2 2 2 2 2 2 2 2 2 2 1 1 1 1 1 1 1 1
0 1 1 1 1 0 0 1 1 0 0 1 1 1 2 2 2 2 2 2 2 2 2 2 2 2 2 2 2 2 1 1 1 1 1 1 1 0 0 0 0 0 -0 -0
0 0 0 0 1 1 -0 0 0 0 -0 -0 0 1 1 1 1 1 1 1 1 1 2 2 2 2 1 1 1 1 1 1 1 1 0 0 0 -0 0 0 -0 -0 -0 -0
-0 -0 0 0 0 1 0 -1 -1 -1 -1 -1 -0 0 0 0 0 0 0 0 0 1 1 1 1 1 1 1 0 -0 0 0 0 0 0 -0 -0 0 -0 -0 -1 -1 -1 -1
-1 -1 -0 -0 -0 -0 -0 -1 -2 -3 -2 -1 -2 -1 -0 -0 -1 -1 -0 -0 -0 0 0 1 0 0 -0 -1 -1 0 -0 -0 -0 0 1 0 -0 -1 -1 -1 -1 -1 -2 -2
-2 -1 -1 -1 -0 -0 -1 -1 -1 -0 -1 -3 -3 -2 -2 -2 -2 -2 -1 -1 -1 -0 -1 -0 -1 -1 -1 -1 -1 0 -1 -1 -0 0 0 -0 -1 -1 -1 -2 -2 -3 -3 -3
-2 -2 -2 -1 -1 -1 -1 -1 -1 -1 -2 -4 -2 -3 -2 -3 -3 -2 -2 -2 -2 -1 -1 -1 -1 -2 -2 -2 -1 0 1 0 -0 -1 -0 -1 -1 -2 -2 -3 -3 -3 -3 -3
-3 -3 -2 -2 -2 -1 -1 -2 -1 -2 -4 -5 -5 -5 -5 -2 -5 -4 -4 -3 -3 -3 -3 -3 -3 -3 -2 -2 -1 -1 -0 -0 -1 -1 -1 -2 -3 -3 -3 -3 -4 -4 -4 -4
-4 -4 -3 -3 -2 -2 -2 -3 -4 -5 -5 -5 -4 -5 -5 -4 -5 -5 -5 -4 -4 -4 -4 -4 -4 -4 -3 -1 -2 -2 -2 -2 -2 -2 -3 -3 -3 -3 -4 -4 -4 -5 -5 -5
-4 -4 -4 -3 -3 -4 -4 -4 -6 -5 -5 -4 -4 -4 -5 -5 -5 -5 -5 -5 -5 -5 -5 -5 -6 -3 -1 -0 -1 -1 -2 -2 -2 -3 -3 -3 -4 -4 -4 -5 -5 -5 -5 -6
-4 -4 -4 -5 -6 -5 -5 -6 -6 -5 -4 -3 -4 -5 -6 -6 -6 -5 -6 -5 -5 -6 -6 -6 -4 -2 -1 -1 -2 -2 -2 -3 -3 -4 -4 -4 -5 -5 -5 -6 -6 -6 -6 -7
-6 -6 -7 -6 -6 -6 -5 -5 -4 -3 -1 -1 -2 -5 -6 -6 -6 -6 -6 -5 -6 -6 -6 -6 -2 -2 -3 -3 -3 -3 -4 -4 -4 -5 -5 -5 -5 -5 -6 -6 -7 -7 -7 -8
-7 -7 -7 -6 -5 -4 -3 -3 -2 -1 -0 -0 -2 -5 -6 -6 -6 -6 -6 -7 -7 -8 -7 -3 -3 -3 -3 -4 -4 -5 -5 -5 -5 -5 -5 -5 -5 -6 -6 -7 -8 -8 -8 -9
-7 -7 -6 -6 -5 -4 -4 -3 -2 -2 -1 -1 -4 -7 -6 -7 -6 -6 -7 -7 -7 -6 -3 -3 -3 -4 -5 -5 -5 -5 -5 -5 -5 -5 -5 -6 -6 -7 -7 -8 -8 -8 -9 -9
-7 -7 -7 -6 -5 -5 -4 -3 -3 -2 -2 -4 -7 -7 -7 -7 -6 -6 -5 -6 -4 -4 -3 -4 -5 -5 -6 -5 -5 -5 -5 -5 -6 -6 -6 -7 -7 -8 -8 -8 -9 -9 -10 -10
-8 -7 -7 -6 -5 -5 -4 -4 -4 -4 -4 -5 -6 -5 -6 -5 -5 -5 -5 -5 -5 -5 -6 -6 -6 -6 -6 -6 -6 -6 -6 -6 -6 -7 -7 -7 -8 -8 -9 -9 -10 -10 -10 -11

GFSNW_700_temp_021.txt.gz
Temp
0 1 1 1 0 0 -0 1 0 -0 -1 -2 -3 -3 -2 -2 -1 -2 -2 -3 -2 -2 -2 -3 -2 -2 -1 -1 -1 -0 1 2 0 1 1 2 1 2 2 4 2 3 3 5
-0 1 1 1 0 0 -0 0 -0 -1 -1 -2 -2 -2 -1 -1 -1 -1 -1 -2 -2 -1 -1 -2 -2 0 -0 -0 -1 0 1 2 -0 -1 1 1 1 2 3 4 4 4 3 5
-0 0 1 1 0 -0 -0 -1 -1 -1 -1 -0 -0 -1 -1 -1 -1 -1 -1 -1 -1 -1 -1 -1 -1 -0 0 0 1 1 2 3 3 1 2 2 1 2 3 4 3 4 4 5
-1 -0 1 0 0 0 -0 -1 -1 -0 -0 1 0 -0 -1 -0 -0 -0 -0 -1 -0 -0 -0 -1 -1 1 1 0 0 1 1 3 3 4 4 4 5 4 4 4 4 4 4 4
-1 -0 1 0 -0 0 -0 -1 -1 -0 -0 0 -0 -0 -0 -0 -0 -0 0 0 -1 -1 1 1 2 2 2 1 -0 1 1 2 3 4 4 4 4 4 4 4 4 4 4 4
-1 -0 0 0 -0 0 -0 -0 -0 -0 0 0 -0 0 -0 -0 -0 0 0 -0 0 -0 1 2 3 3 2 2 0 1 1 2 3 3 3 3 2 4 4 4 4 4 4 6
-1 -1 0 -0 -0 0 -0 -0 -0 -0 -0 -0 -0 -0 0 -0 0 0 1 0 0 1 1 2 1 0 0 0 0 1 2 2 1 2 2 0 5 5 5 5 5 4 4 4
-1 -1 0 -0 -0 -0 -0 -0 -0 -0 -0 -0 -0 0 0 -0 0 0 -0 0 0 0 1 0 0 0 -0 -0 -0 0 1 1 2 3 2 3 4 5 5 5 4 4 4 3
-1 -1 -0 -0 -0 -0 -0 -1 -0 -0 -1 -0 0 -0 2 1 0 -0 1 -0 0 0 0 0 0 -0 -0 -0 -1 -0 0 2 0 2 3 1 4 5 5 4 4 5 4 3
-2 -1 -0 -0 -0 -1 -0 -1 -0 -0 -0 1 1 2 2 1 0 0 0 0 -0 0 -0 0 0 -0 0 1 1 1 0 1 2 3 3 4 4 5 4 2 4 4 2 2
-2 -1 -1 -0 -0 -1 -1 -1 -0 -0 -0 1 2 2 1 1 1 1 1 0 -0 -0 -0 0 1 2 2 2 3 3 2 2 3 2 2 2 3 3 3 4 3 3 2 1
-2 -2 -1 -1 -1 -1 -1 -1 -1 -1 -1 1 2 1 1 1 1 1 1 1 1 -0 1 1 2 2 3 3 3 3 3 3 4 3 3 3 3 3 3 2 2 2 1 1
-2 -2 -1 -1 -1 -1 -1 -1 -1 -1 -0 -0 1 2 1 1 1 1 1 1 1 1 1 2 2 2 3 3 3 3 2 2 2 2 2 2 2 2 1 1 1 1 0 0
-2 -2 -1 -1 -1 -1 -2 -2 -1 -1 -1 -1 0 1 2 1 1 1 1 1 1 1 1 2 2 2 2 2 3 2 2 2 2 1 1 1 1 1 1 1 0 0 -0 -0
-2 -2 -2 -1 -1 -2 -2 -2 -1 -1 -1 -1 -1 -0 1 1 1 1 1 1 1 1 1 1 1 2 2 2 1 1 2 2 1 1 1 1 0 0 -0 -0 -0 -0 -0 -1
-2 -2 -2 -1 -1 -1 -1 -2 -1 -1 -1 -1 -2 -1 -1 -0 0 0 0 0 1 1 0 1 1 1 1 0 1 1 1 1 1 1 1 -0 -0 -0 -0 -1 -1 -1 -1 -1
-3 -3 -2 -2 -1 -2 -2 -3 -2 -2 -2 -2 -2 -2 -1 -1 -2 -2 -2 -1 -1 -1 -1 -1 -0 0 -0 -0 -0 0 0 1 1 1 0 -1 -1 -1 -1 -1 -1 -1 -1 -2
-3 -3 -3 -2 -2 -3 -2 -2 -2 -3 -2 -2 -2 -2 -2 -2 -2 -2 -2 -2 -2 -2 -1 -1 -1 -1 -1 -1 -1 0 0 1 1 -0 -0 -1 -1 -1 -1 -1 -1 -2 -2 -3
-3 -4 -3 -3 -3 -3 -4 -3 -3 -4 -3 -3 -3 -2 -2 -3 -3 -3 -3 -3 -2 -2 -2 -2 -2 -2 -1 -1 -0 -0 0 0 -1 -1 -1 -1 -1 -1 -2 -2 -2 -3 -3 -3
-4 -4 -4 -4 -3 -4 -4 -4 -4 -4 -3 -3 -2 -1 -1 -2 -4 -4 -3 -3 -3 -3 -3 -3 -3 -3 -2 -1 -1 -1 -1 -1 -1 -1 -2 -2 -2 -2 -2 -3 -3 -4 -4 -4
-4 -4 -3 -3 -4 -5 -5 -4 -4 -3 -3 -2 -2 -2 -1 -2 -4 -4 -4 -4 -3 -3 -4 -4 -4 -2 -0 -1 -2 -2 -2 -1 -1 -2 -3 -2 -2 -3 -3 -4 -4 -4 -4 -4
-5 -4 -4 -5 -5 -5 -4 -5 -4 -2 -1 -1 -1 -2 -4 -4 -5 -5 -5 -5 -4 -5 -5 -5 -3 -1 -1 -1 -1 -3 -3 -3 -2 -3 -3 -3 -3 -4 -4 -4 -4 -4 -4 -4
-5 -6 -6 -5 -5 -5 -4 -4 -3 -1 -0 1 0 -2 -4 -5 -5 -5 -5 -5 -5 -5 -6 -6 -1 0 -1 -1 -1 -4 -4 -4 -3 -3 -3 -4 -4 -4 -4 -4 -4 -4 -4 -5
-6 -6 -6 -4 -4 -3 -3 -2 -1 0 1 1 -0 -3 -5 -5 -6 -5 -5 -6 -6 -5 -6 -1 -0 -1 -1 -1 -1 -3 -4 -4 -4 -4 -4 -5 -5 -4 -4 -4 -5 -5 -5 -5
-6 -6 -5 -5 -4 -4 -2 -1 -1 -1 -0 -0 -1 -5 -4 -6 -6 -6 -5 -6 -7 -6 -2 -1 -1 -2 -3 -4 -4 -4 -5 -5 -5 -5 -5 -5 -5 -5 -5 -5 -5 -6 -6 -6
-7 -6 -6 -5 -5 -4 -3 -2 -2 -1 -1 -2 -4 -5 -6 -6 -5 -5 -5 -5 -4 -3 -2 -2 -2 -4 -5 -5 -5 -5 -5 -5 -5 -5 -5 -5 -5 -5 -6 -6 -6 -6 -6 -7
-8 -7 -6 -6 -6 -5 -4 -4 -4 -3 -4 -4 -4 -4 -4 -5 -5 -5 -5 -4 -3 -2 -2 -4 -5 -5 -6 -6 -6 -6 -6 -5 -5 -5 -5 -5 -6 -6 -7 -7 -7 -7 -7 -7

GFSNW_700_temp_024.txt.gz
Temp
-3 -1 -1 -0 -1 -1 -1 -2 -2 -1 -2 -2 -2 -2 -3 -3 -3 -3 -3 -3 -4 -3 -3 -3 -3 -3 -2 -2 -1 -1 0 1 1 -0 1 1 2 1 2 4 3 3 5 8
-4 -1 -1 -1 -1 -1 -2 -2 -2 -3 -3 -2 -1 -1 -2 -3 -3 -3 -3 -3 -3 -4 -3 -2 -3 -2 -1 -0 -1 -1 -0 1 1 0 -0 1 1 2 2 3 4 5 6 7
-4 -2 -1 -1 -1 -2 -2 -2 -3 -2 -2 -2 -1 -2 -2 -2 -2 -2 -2 -2 -3 -3 -2 -2 -2 -2 -1 0 -0 1 -0 1 3 4 3 2 0 2 2 2 4 5 5 6
-4 -2 -1 -1 -1 -2 -2 -2 -2 -2 -2 -1 -1 -1 -2 -1 -1 -1 -1 -2 -2 -2 -2 -2 -2 -1 -1 0 0 0 0 2 2 3 3 3 4 4 3 2 3 4 6 4
-4 -2 -1 -1 -2 -2 -2 -2 -2 -2 -2 -1 -1 -1 -1 -1 -1 -1 -1 -1 -1 -2 -0 -1 -1 -1 0 0 -0 -0 -0 1 2 3 3 3 3 4 4 4 4 4 4 4
-4 -2 -2 -1 -2 -2 -2 -2 -2 -2 -1 -1 -1 -1 -0 -1 -0 0 -0 -0 -2 -1 0 0 1 -1 -0 2 1 -0 0 1 2 3 3 3 2 3 4 4 4 5 3 5
-4 -2 -2 -1 -2 -1 -2 -2 -2 -1 -1 -1 -0 -0 -0 -1 0 0 0 -0 -0 -0 -1 -1 -0 -0 0 2 -0 -0 0 1 2 2 2 1 4 5 5 4 5 4 5 4
-3 -3 -2 -2 -2 -1 -2 -2 -2 -1 -1 -1 -1 -0 -0 -0 -0 -0 0 -0 -0 -0 0 -0 -0 -0 -0 -0 -0 0 0 1 1 1 2 3 4 5 5 5 5 5 5 4
-3 -2 -2 -2 -2 -2 -2 -2 -2 -1 -1 -1 -1 -0 -0 0 -0 -0 -0 -0 0 1 0 0 -0 -0 -0 -1 -1 -0 0 0 1 -0 1 3 5 5 5 5 4 6 6 5
-3 -3 -3 -2 -2 -2 -2 -2 -2 -1 -1 -1 -1 -0 0 -0 -0 -1 -0 -1 -0 0 0 0 0 -0 0 -0 -0 -1 -0 -1 -0 -1 -0 4 4 5 5 4 5 6 5 4
-4 -3 -3 -2 -2 -2 -2 -2 -2 -1 -1 -1 -1 0 1 0 -0 -1 -0 -0 -0 -0 0 0 0 0 0 0 0 -0 1 -0 -1 -1 -1 2 4 4 4 4 4 4 4 3
-3 -3 -3 -2 -2 -2 -2 -1 -2 -1 -1 -1 0 0 1 0 -0 -0 -0 0 0 -0 -0 -0 -0 1 1 0 1 2 1 1 2 2 3 4 4 4 4 4 3 3 2 1
-3 -4 -3 -2 -2 -2 -2 -2 -2 -1 -1 -1 -0 0 1 2 1 0 1 0 1 0 0 -0 0 1 2 2 3 3 2 1 2 3 3 4 4 3 3 2 2 1 1 0
-3 -3 -3 -2 -2 -2 -2 -2 -1 -1 -1 -1 -0 0 1 2 1 0 1 1 1 1 1 1 2 2 2 2 3 3 3 2 2 2 3 3 3 2 2 2 1 1 0 0
-3 -3 -3 -3 -2 -2 -2 -2 -1 -2 -1 -1 -0 0 0 1 1 1 0 1 0 1 1 1 1 1 2 2 2 2 3 3 3 2 2 2 2 2 2 1 1 0 -0 -0
-2 -3 -3 -3 -3 -4 -2 -2 -2 -2 -2 -2 -1 -0 -0 0 0 1 0 0 1 1 1 1 1 1 1 1 1 2 2 2 2 2 2 2 1 1 0 -0 -0 -1 -1 -1
-3 -3 -3 -3 -3 -3 -3 -3 -2 -2 -2 -1 -1 -1 -1 -1 -0 -0 -0 -0 0 -0 -0 0 0 1 0 1 1 1 1 1 1 1 1 1 0 -0 -1 -1 -1 -1 -1 -1
-4 -3 -3 -3 -4 -4 -4 -3 -2 -2 -2 -2 -2 -2 -2 -1 -1 -2 -2 -1 -1 -1 -1 -1 -1 -1 -1 -1 0 0 0 0 1 1 1 0 0 -1 -2 -2 -2 -1 -1 -2
-4 -4 -4 -4 -5 -4 -4 -4 -3 -3 -3 -3 -3 -2 -1 -1 -2 -2 -2 -2 -2 -2 -2 -1 -1 -1 -1 -0 1 1 1 1 0 -0 -0 -1 -1 -1 -2 -2 -2 -2 -2 -3
-4 -4 -4 -5 -5 -4 -6 -5 -5 -4 -3 -3 -3 -3 -2 -2 -4 -3 -3 -3 -2 -3 -2 -2 -2 -2 -1 -1 -1 -1 -0 -0 -0 -0 0 -1 -2 -2 -2 -2 -2 -3 -3 -3
-4 -4 -5 -5 -5 -6 -5 -5 -5 -4 -4 -4 -3 -2 -2 -3 -3 -4 -4 -3 -3 -3 -3 -3 -3 -0 1 0 -1 -2 -2 -1 -1 -1 -3 -4 -3 -3 -3 -3 -3 -3 -3 -3
-4 -4 -5 -5 -5 -5 -5 -5 -4 -3 -2 -2 -2 -2 -3 -4 -5 -4 -4 -4 -4 -4 -4 -5 -3 1 1 1 -0 -3 -2 -2 -2 -2 -3 -3 -3 -3 -3 -4 -4 -4 -4 -4
-5 -6 -5 -5 -5 -5 -4 -4 -4 -2 -1 0 -0 -2 -4 -5 -5 -5 -4 -4 -5 -5 -5 -4 -0 1 1 -1 -3 -3 -3 -3 -3 -4 -3 -3 -4 -4 -4 -4 -4 -4 -4 -4
-6 -6 -6 -5 -4 -3 -3 -2 -1 -0 1 1 -0 -2 -4 -4 -5 -4 -4 -5 -5 -5 -5 -1 -0 0 -0 -2 -3 -4 -4 -4 -4 -4 -4 -4 -5 -5 -5 -5 -4 -4 -5 -5
-6 -5 -4 -4 -4 -3 -2 -2 -1 -1 0 1 -1 -4 -4 -5 -4 -4 -4 -5 -5 -4 -1 -1 -0 -1 -1 -1 -2 -5 -5 -5 -5 -6 -5 -5 -5 -5 -5 -5 -5 -5 -6 -6
-6 -6 -5 -5 -4 -3 -3 -2 -2 -1 -1 -2 -4 -5 -4 -4 -4 -4 -4 -4 -2 -1 -1 -1 -2 -2 -3 -3 -4 -5 -5 -6 -6 -5 -5 -5 -5 -5 -5 -5 -6 -6 -6 -7
-7 -6 -6 -5 -5 -3 -3 -3 -2 -2 -2 -3 -4 -3 -3 -4 -4 -4 -4 -2 -1 -1 -1 -2 -4 -4 -5 -5 -6 -6 -6 -6 -6 -5 -5 -5 -5 -5 -6 -7 -7 -7 -7 -7

GFSNW_700_temp_027.txt.gz
Temp
-4 -4 -3 -4 -4 -3 -3 -3 -2 -2 -3 -4 -4 -4 -3 -3 -4 -4 -4 -4 -4 -4 -3 -2 -1 -2 -1 -2 -2 -2 -2 -1 -1 -0 0 1 1 2 3 6 6 6 8 8
-4 -4 -3 -4 -4 -3 -3 -3 -3 -3 -4 -3 -3 -3 -3 -4 -4 -3 -3 -3 -3 -3 -1 -1 -1 -1 -1 -2 -2 -2 -1 1 -0 -0 -0 0 1 2 3 4 4 7 8 8
-4 -3 -3 -4 -4 -3 -3 -3 -3 -4 -4 -3 -3 -3 -3 -3 -3 -3 -3 -3 -3 -3 -1 -1 -1 -1 -1 -2 -2 -0 -0 0 3 5 4 2 1 2 3 3 5 6 7 7
-4 -3 -4 -4 -4 -3 -3 -3 -2 -3 -3 -3 -2 -2 -2 -2 -2 -2 -3 -3 -3 -2 -1 -1 -1 -1 -1 -1 -1 -1 -1 2 3 3 3 3 3 2 3 3 4 5 7 6
-3 -3 -3 -4 -4 -4 -3 -3 -3 -3 -2 -2 -2 -2 -2 -2 -2 -2 -2 -2 -2 -2 -1 -1 -1 -1 -1 -1 -1 -1 -1 2 2 3 3 3 3 3 3 3 3 4 5 6
-3 -3 -4 -4 -4 -3 -3 -3 -2 -2 -3 -3 -3 -2 -2 -1 -1 -1 -1 -1 -2 -1 -1 -1 -0 -1 -0 -0 0 -1 -1 0 2 4 3 3 3 4 4 4 4 4 4 5
-3 -3 -4 -4 -4 -3 -3 -3 -2 -2 -2 -3 -2 -2 -2 -1 -1 -0 -0 -1 -2 -1 -0 -1 -1 -0 -0 0 -0 0 -1 0 1 2 2 3 5 5 4 4 5 4 4 4
-4 -3 -4 -4 -4 -3 -2 -3 -2 -2 -2 -2 -2 -1 -1 -1 -1 0 -0 -1 -1 -1 -1 -1 -1 -1 -0 -0 -0 -0 -0 1 1 2 3 4 4 5 5 4 5 5 4 4
-4 -3 -3 -3 -4 -3 -3 -3 -2 -2 -2 -2 -2 -1 -1 -1 -1 -1 -1 -1 -1 -1 -0 -1 -1 -1 -1 -1 -1 -1 -1 -0 1 1 2 3 5 5 5 4 4 6 6 5
-4 -3 -4 -3 -3 -3 -3 -3 -2 -2 -2 -1 -2 -2 -1 -1 -1 -1 -1 -1 -1 -1 -1 -0 -0 -1 -0 -1 -1 -1 -1 -1 -0 -0 1 3 4 4 4 4 5 6 6 5
-4 -4 -3 -3 -3 -3 -3 -2 -2 -2 -2 -1 -2 -2 -2 -1 -1 -1 -1 -1 -1 -1 -0 -0 0 -0 -0 -0 -0 -1 -0 -0 -1 -1 -0 0 4 4 4 5 5 5 5 5
-3 -4 -3 -4 -3 -3 -2 -2 -2 -2 -2 -1 -2 -2 -2 -1 -1 -1 -1 -1 -0 -0 -0 -0 1 0 -0 1 -0 -0 0 1 1 1 2 4 4 4 4 4 4 4 4 4
-4 -4 -4 -4 -3 -3 -2 -2 -2 -2 -1 -2 -1 -1 -1 -1 -1 -1 -1 -0 -0 -0 -0 -0 -0 -0 0 0 1 1 1 1 2 3 3 4 4 4 4 3 3 3 3 2
-4 -4 -4 -4 -3 -3 -2 -2 -2 -2 -2 -2 -1 -1 -1 -1 -1 -1 -1 -1 -1 -1 -1 -0 -0 -1 1 1 2 2 2 3 3 3 3 3 3 3 4 3 2 2 2 1
-4 -4 -4 -3 -3 -3 -2 -2 -2 -3 -2 -2 -1 -1 -1 -1 -1 -1 -0 -1 -1 -1 -1 -1 -0 1 1 2 2 3 3 3 3 3 3 3 3 3 3 3 2 1 1 0
-4 -4 -3 -3 -3 -3 -3 -3 -2 -2 -2 -2 -1 -1 -1 -1 -1 -0 -0 0 -0 -0 -0 0 1 1 1 2 2 3 3 2 3 3 2 2 2 2 2 2 1 0 -0 -0
-3 -3 -3 -3 -3 -3 -3 -3 -2 -2 -2 -3 -2 -1 -0 -1 -1 -1 -1 -0 -0 0 -0 0 0 1 1 1 1 3 2 2 2 2 2 2 2 2 1 0 -0 -1 -1 -1
-4 -4 -4 -3 -3 -4 -3 -3 -3 -2 -2 -2 -2 -2 -1 -1 -1 -1 -1 -1 -1 -0 -0 -0 0 0 0 1 2 1 2 2 1 1 1 1 1 1 0 -1 -1 -1 -2 -1
-4 -4 -4 -4 -4 -4 -3 -3 -3 -3 -2 -2 -2 -2 -1 -1 -1 -2 -2 -1 -2 -1 -1 -1 -1 -1 0 2 2 2 2 1 1 1 1 0 0 -0 -1 -2 -2 -2 -2 -2
-4 -5 -4 -4 -4 -4 -4 -4 -4 -4 -3 -3 -3 -2 -1 -1 -3 -3 -3 -3 -3 -3 -2 -1 -2 -1 1 1 1 0 1 1 0 -0 -0 -0 -1 -1 -2 -2 -2 -2 -2 -2
-4 -5 -5 -4 -5 -5 -5 -4 -5 -4 -4 -4 -3 -3 -2 -3 -3 -3 -3 -3 -3 -3 -2 -2 -3 0 2 1 0 -0 -1 -1 -0 -1 -2 -2 -3 -3 -2 -2 -3 -3 -3 -3
-4 -5 -5 -5 -5 -4 -5 -5 -5 -4 -3 -3 -3 -3 -3 -3 -4 -4 -3 -3 -3 -3 -4 -4 -2 1 2 1 1 -1 -2 -2 -1 -1 -1 -2 -3 -3 -3 -3 -3 -3 -4 -4
-5 -5 -5 -5 -5 -5 -4 -5 -4 -3 -2 -1 -1 -2 -4 -4 -5 -4 -4 -4 -4 -4 -4 -3 -0 2 2 2 1 -1 -3 -3 -3 -2 -3 -3 -3 -3 -4 -4 -4 -4 -4 -4
-5 -5 -5 -4 -4 -3 -3 -3 -2 -1 0 -0 -0 -2 -4 -4 -5 -4 -4 -4 -4 -4 -4 -1 1 1 1 1 -0 -3 -3 -3 -3 -4 -3 -3 -4 -4 -4 -4 -4 -4 -4 -4
-5 -5 -4 -3 -4 -3 -3 -2 -2 -1 -0 0 -1 -4 -3 -4 -4 -4 -3 -4 -4 -3 -1 0 1 0 -0 -1 -3 -4 -4 -4 -4 -4 -4 -4 -5 -5 -5 -5 -5 -5 -5 -5
-6 -6 -4 -3 -3 -3 -3 -2 -1 -1 -1 -2 -4 -4 -4 -4 -3 -3 -3 -3 -1 -1 -1 -0 -0 -1 -1 -2 -4 -4 -5 -5 -5 -5 -5 -6 -5 -5 -5 -5 -5 -5 -5 -6
-6 -6 -5 -4 -4 -3 -2 -2 -2 -1 -2 -3 -4 -3 -3 -3 -3 -3 -2 -1 -1 -1 -1 -1 -1 -2 -2 -3 -5 -6 -5 -5 -5 -6 -5 -5 -5 -5 -5 -5 -5 -6 -6 -7

GFSNW_700_temp_030.txt.gz
Temp
-7 -5 -4 -4 -3 -3 -3 -3 -3 -3 -3 -4 -4 -5 -4 -2 -4 -4 -4 -4 -4 -4 -4 -4 -3 -3 -1 -2 -2 -2 -2 -2 -1 -1 -0 0 1 3 4 6 6 7 8 6
-6 -5 -4 -4 -3 -3 -3 -3 -3 -3 -3 -3 -4 -4 -4 -4 -4 -4 -4 -4 -4 -4 -4 -3 -2 -2 -1 -2 -2 -1 -2 -1 -1 -1 -0 0 1 3 4 4 5 6 6 5
-6 -6 -4 -4 -3 -3 -3 -3 -3 -3 -4 -3 -3 -4 -4 -4 -3 -3 -4 -4 -3 -3 -3 -3 -1 -1 -1 -1 -2 -1 -1 -1 -1 0 1 1 1 3 3 4 4 6 7 6
-6 -5 -4 -4 -3 -3 -3 -3 -3 -3 -3 -3 -3 -4 -3 -3 -3 -3 -3 -4 -3 -3 -3 -2 -1 -1 -1 -1 -1 -2 -1 -0 -0 0 3 3 3 2 3 3 4 5 6 7
-6 -4 -4 -3 -4 -3 -3 -3 -3 -3 -3 -2 -3 -3 -3 -3 -2 -3 -3 -3 -3 -3 -2 -1 -1 -1 -2 -1 -2 -2 -1 0 2 2 3 3 3 3 4 4 4 5 5 6
-6 -4 -4 -3 -4 -3 -3 -3 -3 -3 -2 -3 -3 -2 -2 -2 -2 -2 -2 -3 -2 -2 -1 -1 -0 -0 -0 -0 0 -1 -1 0 2 3 3 3 3 3 3 4 4 4 4 6
-7 -4 -4 -3 -4 -4 -4 -3 -3 -3 -3 -3 -3 -2 -2 -2 -3 -2 -1 -2 -2 -1 -1 -1 -2 -1 -0 -0 -0 0 -1 -0 1 2 3 1 4 5 5 5 5 5 4 5
-6 -5 -4 -4 -4 -4 -4 -3 -4 -3 -3 -3 -3 -2 -2 -2 -2 -1 -1 -1 -1 -2 -1 -1 -2 -1 -1 -1 -1 -1 -1 0 0 1 2 4 4 4 5 5 5 4 4 4
-7 -5 -4 -4 -5 -4 -4 -4 -4 -3 -3 -2 -3 -3 -2 -3 -2 -2 -1 -2 -2 -2 -1 -1 -2 -2 -1 -1 -1 -0 -0 -0 -0 0 1 1 4 4 5 5 5 5 4 4
-7 -5 -4 -4 -4 -4 -4 -4 -4 -3 -3 -2 -3 -3 -2 -2 -2 -1 -1 -1 -2 -1 -1 -1 -1 -1 -1 -1 -1 -1 -1 -1 -1 -1 -0 3 3 4 4 4 5 5 5 5
-6 -5 -4 -4 -4 -4 -4 -3 -3 -3 -3 -3 -3 -3 -2 -2 -2 -1 -1 -1 -1 -1 -1 -0 -1 -1 -0 -1 -0 -0 -1 -1 -1 -0 -1 -0 3 4 4 4 4 5 5 5
-6 -5 -4 -4 -4 -4 -4 -3 -3 -3 -3 -2 -3 -2 -2 -3 -2 -2 -2 -1 -1 -1 -1 -1 -1 -0 -0 0 -0 -0 -1 0 0 0 1 3 3 4 4 4 4 4 4 4
-6 -5 -4 -4 -4 -4 -4 -3 -3 -3 -3 -2 -2 -2 -3 -3 -2 -2 -2 -2 -1 -1 -1 -0 0 1 0 0 1 1 -0 -0 -0 1 2 3 4 3 4 4 4 3 3 3
-5 -4 -4 -5 -3 -4 -3 -3 -3 -3 -3 -3 -2 -2 -2 -1 -2 -2 -2 -2 -1 -1 -1 -1 0 0 0 -0 1 1 1 1 1 1 2 3 3 3 3 3 3 3 2 2
-5 -4 -4 -5 -3 -4 -3 -3 -3 -3 -3 -3 -2 -2 -2 -1 -1 -2 -2 -1 -1 -2 -1 -1 -1 -1 -1 -0 -0 1 2 2 2 3 3 3 3 3 3 3 3 2 2 1
-5 -4 -5 -3 -4 -4 -4 -4 -4 -3 -3 -3 -3 -2 -2 -1 -1 -1 -1 -1 -2 -1 -2 -2 -1 -1 0 1 1 2 2 3 2 3 3 3 3 2 3 2 2 1 1 0
-5 -4 -4 -5 -4 -4 -4 -4 -3 -3 -3 -3 -3 -2 -2 -2 -1 -1 -1 -1 -2 -2 -1 -1 -0 0 0 1 2 2 3 3 2 2 2 2 2 2 2 2 2 0 -0 -0
-4 -4 -4 -5 -4 -4 -4 -3 -3 -3 -2 -3 -3 -2 -3 -2 -2 -1 -1 -1 -1 -1 -1 -1 -0 -0 0 1 2 2 2 2 2 2 2 2 2 2 2 1 -0 -1 -1 -1
-4 -4 -4 -4 -4 -4 -4 -4 -2 -3 -3 -3 -2 -3 -2 -2 -3 -2 -2 -1 -2 -1 -1 -1 -1 -0 1 2 2 2 2 2 2 1 1 1 1 1 0 0 -1 -1 -2 -2
-4 -4 -4 -4 -4 -4 -4 -3 -3 -3 -3 -3 -2 -2 -2 -2 -3 -3 -3 -3 -3 -2 -2 -1 -2 -0 1 1 1 1 1 2 1 1 0 0 0 -0 -0 -1 -2 -2 -3 -3
-4 -5 -4 -4 -4 -4 -4 -4 -4 -4 -3 -3 -3 -2 -2 -3 -3 -3 -3 -3 -2 -2 -2 -2 -3 -0 1 2 1 0 -0 -0 0 -0 -1 -1 -1 -1 -2 -2 -3 -3 -3 -3
-4 -5 -4 -4 -5 -4 -4 -4 -4 -4 -3 -3 -3 -2 -3 -3 -3 -4 -3 -3 -2 -2 -3 -3 -1 1 1 1 1 0 -2 -1 -1 -1 -1 -1 -1 -1 -3 -3 -3 -3 -3 -3
-5 -4 -4 -4 -4 -4 -4 -4 -4 -3 -3 -2 -1 -2 -4 -3 -3 -4 -3 -3 -3 -3 -3 -2 1 2 2 2 2 1 -1 -2 -2 -2 -1 -2 -2 -2 -3 -4 -4 -4 -4 -4
-5 -5 -5 -5 -4 -3 -3 -3 -3 -2 -1 0 -1 -3 -4 -4 -4 -4 -3 -3 -3 -3 -3 1 2 1 1 1 1 0 -2 -3 -2 -2 -3 -2 -3 -4 -4 -4 -4 -4 -4 -4
-5 -5 -4 -4 -4 -3 -3 -2 -2 -2 -1 -0 -1 -3 -3 -4 -4 -3 -3 -3 -3 -2 -0 1 0 0 0 -0 -1 -3 -4 -3 -3 -3 -4 -4 -4 -4 -4 -4 -4 -4 -4 -4
-5 -5 -4 -3 -4 -3 -3 -2 -1 -2 -1 -1 -2 -4 -4 -3 -3 -3 -2 -2 -1 0 1 1 0 -0 -0 -1 -3 -4 -4 -4 -4 -4 -5 -4 -5 -5 -5 -4 -4 -4 -4 -5
-6 -5 -5 -4 -4 -3 -3 -2 -1 -2 -2 -2 -3 -3 -3 -3 -2 -2 -2 -0 1 0 1 1 0 -0 -1 -2 -5 -5 -4 -4 -5 -5 -6 -6 -6 -5 -5 -4 -5 -5 -5 -6

GFSNW_700_temp_033.txt.gz
Temp
-8 -8 -7 -5 -4 -4 -3 -4 -3 -4 -4 -4 -4 -4 -3 -3 -3 -4 -4 -4 -4 -4 -4 -4 -4 -4 -2 -2 -2 -3 -3 -3 -3 -2 -2 -1 -1 -1 1 3 5 5 5 4
-9 -8 -7 -5 -5 -4 -3 -4 -4 -3 -3 -3 -4 -3 -3 -3 -3 -3 -4 -4 -4 -4 -4 -4 -3 -4 -1 -3 -2 -3 -3 -3 -3 -1 -1 -1 -1 0 2 3 4 5 3 4
-9 -8 -6 -5 -4 -4 -4 -4 -4 -4 -4 -4 -3 -3 -3 -4 -3 -4 -4 -4 -4 -4 -4 -4 -3 -2 -2 -2 -2 -2 -2 -2 -1 -1 -1 0 0 1 2 3 5 5 5 5
-9 -8 -6 -5 -4 -4 -4 -4 -3 -3 -4 -4 -2 -3 -3 -3 -4 -3 -4 -4 -3 -4 -3 -4 -3 -2 -2 -2 -2 -2 -2 -2 -1 -1 -1 0 2 3 4 3 5 6 5 7
-10 -8 -6 -6 -4 -4 -3 -3 -4 -3 -3 -3 -3 -3 -3 -3 -2 -3 -3 -3 -3 -3 -4 -3 -1 -1 -2 -2 -2 -2 -2 -2 -1 -0 1 1 2 3 3 4 4 5 5 6
-10 -9 -6 -5 -4 -4 -4 -3 -4 -3 -3 -2 -2 -3 -3 -2 -3 -2 -3 -3 -4 -3 -1 -2 -1 -1 -1 -1 -1 -1 -2 -0 -1 -0 -0 0 2 3 3 4 5 5 5 4
-10 -9 -6 -5 -4 -4 -4 -3 -3 -4 -3 -3 -3 -3 -3 -3 -3 -2 -3 -3 -3 -2 -2 -2 -2 -1 -1 -1 -0 -0 0 -0 -1 1 2 0 4 4 4 5 5 5 5 5
-10 -9 -6 -5 -4 -4 -4 -4 -3 -4 -3 -2 -3 -3 -4 -3 -3 -3 -3 -2 -2 -2 -2 -2 -2 -1 -1 -2 -1 -1 -1 -1 -0 0 1 3 4 4 4 4 5 5 5 4
-11 -8 -6 -5 -4 -4 -4 -4 -4 -3 -3 -3 -3 -3 -3 -3 -4 -3 -2 -2 -2 -2 -2 -2 -2 -2 -1 -2 -2 -2 -1 -0 -1 -1 -0 0 3 3 4 4 4 4 4 4
-9 -7 -6 -5 -4 -4 -4 -4 -3 -4 -4 -4 -3 -3 -3 -3 -3 -2 -1 -2 -2 -2 -2 -1 -1 -2 -1 -1 -1 -1 -1 -1 -1 -1 -1 2 3 3 4 4 4 5 5 5
-9 -7 -6 -5 -4 -4 -4 -4 -4 -4 -3 -4 -3 -3 -3 -3 -3 -2 -1 -2 -2 -2 -2 -1 -1 -1 -1 -0 -0 -0 -1 -1 -1 -1 -1 -0 3 3 3 4 4 5 5 5
-8 -7 -6 -4 -4 -4 -5 -4 -4 -4 -4 -4 -3 -3 -3 -3 -2 -2 -2 -2 -1 -1 -2 -1 -1 -1 -1 -1 -1 -0 -0 1 1 0 1 2 3 3 3 4 4 4 4 4
-8 -7 -6 -4 -4 -5 -4 -4 -4 -3 -4 -3 -3 -3 -3 -3 -2 -2 -2 -2 -1 -1 -1 -1 -1 -0 -0 -0 0 1 0 0 -0 1 2 3 3 3 3 3 4 4 4 4
-7 -6 -6 -4 -5 -5 -4 -4 -3 -4 -3 -3 -3 -2 -3 -3 -3 -2 -3 -2 -2 -2 -1 -1 -0 0 1 1 1 1 1 1 0 1 3 3 3 3 3 3 3 3 3 3
-6 -5 -5 -5 -5 -4 -4 -3 -4 -3 -3 -3 -3 -3 -2 -2 -2 -2 -3 -2 -2 -1 -1 -1 -1 -0 0 1 1 1 1 2 2 2 3 3 3 3 3 3 3 3 2 2
-6 -5 -4 -4 -4 -4 -4 -4 -4 -3 -3 -3 -3 -3 -2 -2 -2 -2 -2 -2 -2 -1 -2 -1 -1 -1 -1 -1 -1 1 0 1 2 2 2 2 2 3 2 3 3 2 1 1
-5 -5 -4 -4 -4 -4 -4 -4 -3 -3 -3 -3 -4 -2 -2 -2 -2 -2 -2 -2 -2 -2 -2 -2 -2 -1 -1 -1 1 1 1 2 2 2 2 2 3 2 2 2 2 1 1 0
-5 -4 -4 -4 -4 -5 -4 -4 -4 -3 -3 -3 -3 -3 -3 -2 -2 -2 -2 -2 -2 -2 -2 -2 -1 -1 -0 -0 1 2 2 2 2 2 2 2 2 2 2 1 1 0 -0 -1
-5 -4 -4 -4 -5 -4 -4 -3 -3 -3 -4 -3 -3 -3 -2 -2 -2 -3 -3 -2 -2 -2 -2 -2 -1 -1 0 1 2 2 2 2 2 2 1 1 1 1 1 1 0 -1 -1 -2
-5 -4 -5 -5 -5 -4 -4 -4 -4 -4 -3 -3 -2 -2 -2 -2 -3 -3 -3 -3 -3 -3 -2 -1 -1 1 1 2 1 2 2 2 1 1 1 1 0 0 0 -0 -1 -2 -2 -3
-5 -5 -4 -4 -4 -4 -5 -4 -4 -3 -3 -3 -3 -3 -2 -3 -3 -3 -4 -3 -3 -3 -2 -2 -2 1 2 2 2 1 0 0 1 0 -0 -1 -1 -1 -1 -1 -1 -2 -3 -3
-5 -5 -5 -4 -4 -4 -4 -4 -4 -3 -3 -3 -3 -2 -3 -3 -3 -3 -3 -3 -2 -2 -3 -3 -1 2 2 2 1 1 -0 -1 -1 -0 -1 -1 -1 -1 -2 -2 -2 -3 -3 -3
-5 -5 -4 -5 -4 -4 -4 -4 -4 -3 -2 -1 -1 -2 -3 -3 -3 -3 -3 -3 -3 -3 -2 -1 2 2 2 1 1 1 -0 -2 -2 -1 -1 -2 -2 -3 -3 -3 -4 -4 -4 -4
-5 -4 -5 -3 -4 -3 -3 -3 -2 -2 -1 0 -1 -3 -4 -4 -4 -3 -3 -3 -3 -3 -2 1 2 2 2 1 1 1 -0 -3 -3 -2 -2 -2 -2 -2 -3 -4 -4 -4 -4 -4
-5 -5 -4 -4 -4 -3 -3 -2 -2 -2 -1 -0 -1 -4 -4 -4 -4 -3 -3 -3 -2 -1 1 1 1 1 1 1 1 -0 -2 -3 -3 -3 -2 -3 -4 -4 -4 -5 -5 -4 -4 -4
-5 -5 -4 -4 -4 -3 -2 -2 -2 -2 -2 -1 -3 -4 -4 -4 -3 -2 -2 -2 -0 1 1 1 1 1 1 0 -1 -2 -4 -4 -3 -3 -4 -4 -5 -5 -5 -5 -4 -5 -4 -4
-6 -6 -5 -4 -4 -3 -2 -2 -2 -2 -2 -2 -3 -3 -2 -3 -2 -2 -1 -0 1 1 1 1 1 1 0 -0 -1 -5 -5 -4 -4 -4 -5 -6 -5 -5 -5 -5 -5 -5 -5 -5

GFSNW_700_temp_036.txt.gz
Temp
-9 -9 -8 -8 -6 -5 -5 -4 -4 -3 -3 -4 -5 -4 -4 -4 -3 -3 -4 -4 -4 -5 -4 -4 -4 -4 -3 -2 -2 -3 -3 -4 -4 -4 -2 -3 -3 -2 -2 -2 -2 -2 1 5
-9 -9 -9 -8 -6 -5 -5 -4 -4 -4 -4 -4 -4 -4 -4 -4 -4 -4 -4 -4 -4 -4 -4 -4 -4 -3 -2 -3 -3 -3 -3 -4 -4 -2 -2 -3 -3 -2 -2 -1 -2 0 2 4
-9 -9 -9 -8 -6 -5 -5 -4 -4 -4 -4 -4 -3 -4 -4 -4 -4 -4 -4 -4 -4 -4 -4 -4 -4 -3 -3 -3 -2 -3 -3 -3 -3 -2 -2 -2 -2 -1 -1 -1 1 3 3 5
-10 -10 -9 -8 -7 -5 -4 -4 -4 -4 -4 -4 -4 -4 -4 -4 -4 -4 -4 -4 -3 -4 -4 -4 -4 -3 -2 -3 -2 -3 -3 -2 -3 -3 -2 -1 -2 -1 -0 1 2 4 4 5
-10 -10 -9 -7 -7 -5 -4 -4 -4 -4 -3 -3 -3 -4 -4 -4 -3 -4 -4 -3 -3 -4 -4 -3 -3 -2 -3 -3 -2 -3 -3 -3 -3 -3 -1 -0 -0 0 0 2 3 4 5 5
-10 -10 -9 -7 -6 -5 -4 -4 -3 -3 -3 -3 -4 -3 -3 -2 -3 -3 -3 -3 -3 -3 -3 -2 -4 -3 -2 -2 -1 -1 -2 -3 -2 -1 0 1 2 2 2 3 3 4 5 5
-10 -10 -9 -7 -6 -5 -4 -4 -4 -4 -4 -3 -2 -3 -3 -3 -3 -3 -3 -3 -3 -3 -3 -3 -3 -2 -2 -2 -1 -1 -1 -2 -2 -1 0 0 3 3 4 4 4 4 5 5
-10 -10 -9 -6 -6 -5 -4 -4 -4 -4 -4 -4 -3 -3 -4 -3 -3 -3 -3 -3 -3 -3 -3 -3 -3 -2 -2 -2 -2 -2 -2 -1 -1 -1 0 2 3 4 4 3 4 4 4 5
-10 -10 -8 -6 -6 -5 -4 -4 -4 -4 -4 -3 -4 -4 -3 -3 -3 -4 -3 -2 -3 -3 -3 -3 -2 -2 -2 -2 -2 -2 -2 -2 -2 -1 -1 -0 3 3 4 4 4 5 5 4
-10 -9 -7 -6 -6 -4 -4 -4 -4 -4 -4 -3 -3 -3 -3 -3 -4 -4 -3 -3 -3 -3 -3 -2 -1 -2 -2 -1 -2 -2 -2 -2 -2 -2 -1 2 3 3 3 3 4 4 5 5
-10 -9 -7 -6 -5 -5 -4 -4 -4 -4 -3 -4 -4 -3 -3 -3 -3 -3 -2 -3 -3 -3 -3 -2 -2 -1 -1 -1 -1 -0 -2 -1 -1 -1 -1 -1 3 3 3 4 4 4 5 5
-10 -9 -6 -6 -5 -5 -4 -4 -4 -4 -4 -4 -3 -3 -3 -3 -3 -3 -2 -2 -2 -2 -2 -2 -1 -1 -1 -1 -1 -0 -1 0 0 1 2 2 2 2 3 3 4 4 4 5
-10 -9 -6 -6 -6 -4 -4 -4 -4 -4 -4 -4 -3 -3 -3 -4 -3 -3 -2 -2 -2 -2 -1 -1 -1 -1 -1 -1 -0 1 0 0 0 1 2 3 2 3 3 3 3 4 4 4
-9 -8 -6 -6 -5 -4 -4 -4 -4 -3 -4 -3 -3 -3 -3 -3 -3 -2 -2 -2 -2 -2 -2 -1 -1 -1 -0 -0 1 1 1 1 1 1 2 2 3 3 3 3 3 3 3 3
-9 -7 -6 -5 -5 -4 -4 -4 -4 -3 -3 -3 -3 -3 -3 -3 -3 -2 -2 -2 -2 -2 -2 -2 -1 -1 -0 -0 -0 1 2 2 1 0 1 1 3 3 2 2 3 3 2 3
-8 -7 -5 -5 -5 -4 -4 -5 -4 -4 -4 -3 -4 -3 -3 -3 -2 -3 -3 -3 -2 -2 -1 -1 -1 -1 -1 -0 -0 1 1 0 -0 0 0 1 2 2 2 2 2 2 2 1
-8 -6 -5 -5 -4 -4 -4 -4 -3 -3 -4 -3 -3 -3 -2 -2 -3 -3 -2 -3 -2 -2 -2 -1 -1 -1 -1 -1 -0 1 1 0 -0 0 1 1 2 2 2 2 2 2 1 1
-7 -5 -5 -5 -4 -4 -4 -4 -4 -3 -4 -4 -3 -3 -3 -2 -3 -3 -3 -3 -2 -2 -2 -2 -2 -2 -1 0 1 1 1 1 1 2 2 2 2 2 2 2 1 1 0 0
-7 -6 -5 -5 -5 -4 -5 -4 -4 -4 -4 -4 -3 -3 -2 -2 -3 -3 -2 -2 -2 -2 -2 -2 -2 -1 0 2 2 2 1 1 1 1 1 1 1 1 1 1 1 -0 -0 -1
-6 -5 -5 -5 -5 -4 -4 -4 -4 -3 -4 -4 -3 -3 -2 -2 -3 -4 -3 -3 -3 -2 -2 -1 -1 0 2 2 2 2 2 2 1 1 1 1 1 1 1 1 -0 -1 -1 -2
-6 -5 -5 -5 -4 -5 -4 -4 -4 -4 -4 -4 -3 -3 -2 -3 -3 -4 -3 -3 -2 -2 -2 -2 -1 2 3 3 3 2 1 1 1 1 0 -0 -1 -0 -0 -0 -1 -1 -2 -2
-5 -5 -4 -4 -5 -4 -4 -4 -4 -4 -3 -3 -3 -3 -3 -3 -3 -4 -3 -3 -3 -2 -2 -2 -0 3 3 3 3 2 2 1 -0 1 0 -0 -0 -1 -1 -2 -2 -2 -3 -3
-5 -5 -4 -5 -4 -4 -4 -5 -5 -3 -2 -1 -1 -2 -3 -3 -3 -3 -3 -3 -3 -3 -2 -1 2 3 3 2 1 1 1 0 -1 -1 -1 -1 -1 -2 -2 -2 -3 -3 -3 -4
-5 -5 -5 -4 -4 -3 -3 -2 -2 -1 -0 0 -1 -3 -3 -3 -4 -3 -3 -3 -3 -3 -2 1 2 2 2 2 2 2 1 -0 -2 -2 -2 -2 -2 -2 -3 -4 -4 -4 -4 -4
-5 -5 -4 -4 -4 -4 -3 -2 -2 -2 -1 -0 -1 -3 -4 -4 -3 -3 -3 -3 -2 -1 1 2 2 2 1 1 1 1 0 -1 -2 -2 -2 -2 -2 -2 -3 -4 -4 -5 -5 -4
-6 -5 -5 -4 -4 -4 -3 -2 -2 -2 -2 -1 -3 -4 -4 -4 -3 -3 -2 -2 -0 1 2 2 2 2 1 1 1 -0 -1 -4 -3 -3 -3 -3 -3 -4 -4 -5 -6 -5 -5 -5
-6 -5 -5 -4 -4 -3 -3 -3 -2 -2 -2 -2 -3 -3 -3 -3 -3 -2 -2 -0 1 1 1 1 1 1 1 1 1 -1 -3 -4 -4 -3 -4 -4 -5 -6 -6 -5 -5 -5 -5 -5